EW0401 Weather Reports


Display with metric or nautical units.
time (UTC)temp
F
wind
direction
speed
MPH
gust
MPH
rain 1hr
in
rain 24hr
in
rain mn
in
humidity
%
barometer
mb
20260503220057 79 0 0.0 3.0 0.00 0.00 0.00 47 1019.9
20260503214550 79 0 0.0 3.0 0.00 0.00 0.00 46 1020.1
20260503213053 80 0 0.0 4.0 0.00 0.00 0.00 45 1020.2
20260503211551 79 0 0.0 3.0 0.00 0.00 0.00 48 1020.4
20260503210052 80 0 1.0 6.0 0.00 0.00 0.00 46 1020.5
20260503204554 80 213 0.0 5.0 0.00 0.00 0.00 48 1020.7
20260503203052 80 0 0.0 4.0 0.00 0.00 0.00 46 1020.9
20260503201552 80 167 0.0 2.0 0.00 0.00 0.00 48 1021.2
20260503200051 80 208 0.0 4.0 0.00 0.00 0.00 45 1021.3
20260503194554 80 211 0.0 5.0 0.00 0.00 0.00 46 1021.6
20260503193052 80 0 0.0 4.0 0.00 0.00 0.00 46 1021.7
20260503191551 80 0 0.0 2.0 0.00 0.00 0.00 44 1022.0
20260503190052 78 0 0.0 6.0 0.00 0.00 0.00 47 1022.2
20260503184605 78 0 1.0 4.0 0.00 0.00 0.00 45 1022.3
20260503183055 79 0 0.0 3.0 0.00 0.00 0.00 46 1022.5
20260503181556 79 0 0.0 4.0 0.00 0.00 0.00 45 1022.7
20260503180056 78 0 0.0 3.0 0.00 0.00 0.00 44 1022.9
20260503174554 78 0 0.0 4.0 0.00 0.00 0.00 47 1023.2
20260503173058 78 0 0.0 2.0 0.00 0.00 0.00 46 1023.4
20260503171610 77 128 0.0 2.0 0.00 0.00 0.00 44 1023.5
20260503170105 77 122 0.0 4.0 0.00 0.00 0.00 44 1023.6
20260503081552 54 0 0.0 0.0 0.00 0.00 0.00 88 1021.4
20260503080107 54 0 0.0 0.0 0.00 0.00 0.00 88 1021.4
20260503071606 54 0 0.0 0.0 0.00 0.00 0.00 88 1021.4
20260503054600 56 0 0.0 0.0 0.00 0.00 0.00 87 1021.4
20260503053052 57 0 0.0 0.0 0.00 0.00 0.00 86 1021.4
20260503051553 57 0 0.0 0.0 0.00 0.00 0.00 86 1021.3
20260503050055 57 0 0.0 0.0 0.00 0.00 0.00 86 1021.1
20260503044557 57 0 0.0 0.0 0.00 0.00 0.00 85 1020.9
20260503043051 58 0 0.0 0.0 0.00 0.00 0.00 85 1021.2
20260503041553 58 0 0.0 0.0 0.00 0.00 0.00 84 1021.1
20260503040055 59 0 0.0 0.0 0.00 0.00 0.00 84 1021.1
20260503034551 59 0 0.0 0.0 0.00 0.02 0.00 83 1020.8
20260503033052 60 0 0.0 0.0 0.00 0.02 0.00 82 1020.7
20260503031553 61 0 0.0 0.0 0.00 0.02 0.00 81 1020.9
20260503030056 61 0 0.0 0.0 0.00 0.02 0.00 79 1020.8
20260503024551 61 0 0.0 0.0 0.00 0.06 0.00 77 1020.6
20260503023101 62 0 0.0 0.0 0.00 0.06 0.00 76 1020.5
20260503021557 63 0 0.0 0.0 0.00 0.06 0.00 73 1020.4
20260503020054 64 0 0.0 0.0 0.00 0.06 0.00 70 1020.1
20260503014555 66 0 0.0 0.0 0.00 0.07 0.00 66 1019.8
20260503013056 67 0 0.0 0.0 0.00 0.07 0.00 63 1019.8
20260503011620 69 0 0.0 0.0 0.00 0.07 0.00 61 1019.7
20260503010057 70 0 0.0 0.0 0.00 0.07 0.00 58 1019.4
20260503004618 72 0 0.0 0.0 0.00 0.19 0.00 55 1019.2
20260503003056 73 0 0.0 2.0 0.00 0.19 0.00 53 1019.1
20260503001555 74 0 0.0 2.0 0.00 0.19 0.00 52 1018.9
20260503000104 74 325 0.0 3.0 0.00 0.19 0.00 50 1018.8
20260502234602 74 309 0.0 6.0 0.00 0.21 0.00 49 1018.7
20260502233055 75 0 1.0 10.0 0.00 0.21 0.00 48 1018.7
20260502231552 75 0 0.0 4.0 0.00 0.21 0.00 48 1018.6
20260502230056 76 0 0.0 3.0 0.00 0.21 0.00 48 1018.5
20260502224552 76 84 1.0 5.0 0.00 0.35 0.00 46 1018.5
20260502223053 76 0 0.0 3.0 0.00 0.35 0.00 47 1018.6
20260502221609 76 0 0.0 4.0 0.00 0.35 0.00 46 1018.6